Time,TemperatureF,DewpointF,PressureIn,WindDirection,WindDirectionDegrees,WindSpeedMPH,WindSpeedGustMPH,Humidity,HourlyPrecipIn,Conditions,Clouds,dailyrainin,SoftwareType,DateUTC
2013-02-05 00:00:00,38.9,33.6,29.90,SSE,157,7.0,7.0,81,0.00,,,0.00,Wunderground v.1.15,2013-02-05 05:00:00,
2013-02-05 00:01:00,38.9,33.3,29.90,South,177,3.0,7.0,80,0.00,,,0.00,Wunderground v.1.15,2013-02-05 05:01:00,
2013-02-05 00:04:00,38.9,33.3,29.90,South,170,6.0,7.0,80,0.00,,,0.00,Wunderground v.1.15,2013-02-05 05:04:00,
2013-02-05 00:09:00,39.0,33.7,29.90,SSE,165,7.0,8.0,81,0.00,,,0.00,Wunderground v.1.15,2013-02-05 05:09:00,
2013-02-05 00:14:00,39.0,33.7,29.90,South,178,6.0,9.0,81,0.00,,,0.00,Wunderground v.1.15,2013-02-05 05:14:00,
2013-02-05 00:20:00,39.0,33.7,29.89,South,180,10.0,10.0,81,0.00,,,0.00,Wunderground v.1.15,2013-02-05 05:20:00,
2013-02-05 00:26:00,39.0,33.4,29.89,South,176,4.0,10.0,80,0.00,,,0.00,Wunderground v.1.15,2013-02-05 05:26:00,
2013-02-05 00:31:00,39.0,33.4,29.89,SSE,164,5.0,6.0,80,0.00,,,0.00,Wunderground v.1.15,2013-02-05 05:31:00,
2013-02-05 00:37:00,39.0,33.4,29.89,South,178,6.0,6.0,80,0.00,,,0.00,Wunderground v.1.15,2013-02-05 05:37:00,
2013-02-05 00:43:00,39.0,33.4,29.89,South,178,4.0,7.0,80,0.00,,,0.00,Wunderground v.1.15,2013-02-05 05:43:00,
2013-02-05 00:48:00,39.0,33.0,29.89,South,176,6.0,8.0,79,0.00,,,0.00,Wunderground v.1.15,2013-02-05 05:48:00,
2013-02-05 00:54:00,39.0,33.4,29.89,South,173,8.0,10.0,80,0.00,,,0.00,Wunderground v.1.15,2013-02-05 05:54:00,
2013-02-05 00:59:00,39.0,34.0,29.89,South,188,9.0,10.0,82,0.00,,,0.00,Wunderground v.1.15,2013-02-05 05:59:00,
2013-02-05 01:04:00,38.9,34.2,29.88,SSW,194,11.0,11.0,83,0.00,,,0.00,Wunderground v.1.15,2013-02-05 06:04:00,
2013-02-05 01:09:00,38.8,34.4,29.88,South,190,10.0,11.0,84,0.00,,,0.00,Wunderground v.1.15,2013-02-05 06:09:00,
2013-02-05 01:14:00,38.7,34.6,29.88,SSW,192,10.0,10.0,85,0.00,,,0.00,Wunderground v.1.15,2013-02-05 06:14:00,
2013-02-05 01:19:00,38.7,34.9,29.88,SSW,196,10.0,10.0,86,0.00,,,0.00,Wunderground v.1.15,2013-02-05 06:19:00,
2013-02-05 01:25:00,38.6,34.8,29.88,SSW,198,10.0,11.0,86,0.00,,,0.00,Wunderground v.1.15,2013-02-05 06:25:00,
2013-02-05 01:30:00,38.6,34.8,29.88,SSW,197,10.0,10.0,86,0.00,,,0.00,Wunderground v.1.15,2013-02-05 06:30:00,
2013-02-05 01:35:00,38.6,34.8,29.88,SSW,195,10.0,10.0,86,0.00,,,0.00,Wunderground v.1.15,2013-02-05 06:35:00,
2013-02-05 01:40:00,38.6,34.8,29.87,SSW,194,7.0,10.0,86,0.00,,,0.00,Wunderground v.1.15,2013-02-05 06:40:00,
2013-02-05 01:45:00,38.5,34.7,29.88,SSW,192,6.0,10.0,86,0.00,,,0.00,Wunderground v.1.15,2013-02-05 06:45:00,
2013-02-05 01:50:00,38.4,34.9,29.88,SSW,192,5.0,7.0,87,0.00,,,0.00,Wunderground v.1.15,2013-02-05 06:50:00,
2013-02-05 01:56:00,38.4,34.9,29.88,SSW,193,5.0,7.0,87,0.00,,,0.00,Wunderground v.1.15,2013-02-05 06:56:00,
2013-02-05 02:01:00,38.4,34.9,29.88,SSW,192,6.0,9.0,87,0.00,,,0.00,Wunderground v.1.15,2013-02-05 07:01:00,
2013-02-05 02:06:00,38.4,34.9,29.88,SSW,194,7.0,9.0,87,0.00,,,0.00,Wunderground v.1.15,2013-02-05 07:06:00,
2013-02-05 02:11:00,38.5,34.7,29.87,SSW,202,5.0,6.0,86,0.00,,,0.00,Wunderground v.1.15,2013-02-05 07:11:00,
2013-02-05 02:16:00,38.6,34.8,29.88,SSW,202,4.0,6.0,86,0.00,,,0.00,Wunderground v.1.15,2013-02-05 07:16:00,
2013-02-05 02:21:00,38.7,34.6,29.88,SSW,204,4.0,6.0,85,0.00,,,0.00,Wunderground v.1.15,2013-02-05 07:21:00,
2013-02-05 02:26:00,38.9,34.5,29.87,SSW,205,5.0,7.0,84,0.00,,,0.00,Wunderground v.1.15,2013-02-05 07:26:00,
2013-02-05 02:31:00,39.0,34.6,29.87,SSW,205,4.0,6.0,84,0.00,,,0.00,Wunderground v.1.15,2013-02-05 07:31:00,
2013-02-05 02:36:00,39.1,34.4,29.87,SSW,205,4.0,6.0,83,0.00,,,0.00,Wunderground v.1.15,2013-02-05 07:36:00,
2013-02-05 02:41:00,39.2,34.5,29.87,SSW,205,4.0,4.0,83,0.00,,,0.00,Wunderground v.1.15,2013-02-05 07:41:00,
2013-02-05 02:46:00,39.2,34.5,29.88,SSW,205,3.0,4.0,83,0.00,,,0.00,Wunderground v.1.15,2013-02-05 07:46:00,
2013-02-05 02:51:00,39.2,34.5,29.88,SSW,205,2.0,3.0,83,0.00,,,0.00,Wunderground v.1.15,2013-02-05 07:51:00,
2013-02-05 02:56:00,39.2,34.5,29.88,SSW,205,1.0,3.0,83,0.00,,,0.00,Wunderground v.1.15,2013-02-05 07:56:00,
2013-02-05 03:01:00,39.2,34.5,29.88,SSW,205,1.0,3.0,83,0.00,,,0.00,Wunderground v.1.15,2013-02-05 08:01:00,
2013-02-05 03:07:00,39.2,34.5,29.87,SSW,205,2.0,3.0,83,0.00,,,0.00,Wunderground v.1.15,2013-02-05 08:07:00,
2013-02-05 03:12:00,39.2,34.2,29.87,SSW,205,3.0,3.0,82,0.00,,,0.00,Wunderground v.1.15,2013-02-05 08:12:00,
2013-02-05 03:17:00,39.2,34.2,29.87,SSW,205,2.0,3.0,82,0.00,,,0.00,Wunderground v.1.15,2013-02-05 08:17:00,
2013-02-05 03:23:00,39.2,33.9,29.87,SSW,205,3.0,3.0,81,0.00,,,0.00,Wunderground v.1.15,2013-02-05 08:23:00,
2013-02-05 03:28:00,39.2,34.2,29.87,SSW,205,4.0,4.0,82,0.00,,,0.00,Wunderground v.1.15,2013-02-05 08:28:00,
2013-02-05 03:33:00,39.1,33.8,29.87,SSW,205,4.0,5.0,81,0.00,,,0.00,Wunderground v.1.15,2013-02-05 08:33:00,
2013-02-05 03:38:00,39.1,33.8,29.86,SSW,205,5.0,5.0,81,0.00,,,0.00,Wunderground v.1.15,2013-02-05 08:38:00,
2013-02-05 03:43:00,39.1,33.8,29.86,SSW,205,4.0,5.0,81,0.00,,,0.00,Wunderground v.1.15,2013-02-05 08:43:00,
2013-02-05 03:48:00,39.0,34.0,29.86,SSW,205,6.0,6.0,82,0.00,,,0.00,Wunderground v.1.15,2013-02-05 08:48:00,
2013-02-05 03:53:00,39.0,34.3,29.86,SSW,205,5.0,7.0,83,0.00,,,0.00,Wunderground v.1.15,2013-02-05 08:53:00,
2013-02-05 03:58:00,38.9,34.8,29.86,SSW,204,6.0,7.0,85,0.00,,,0.00,Wunderground v.1.15,2013-02-05 08:58:00,
2013-02-05 04:03:00,38.7,34.9,29.86,SSW,204,4.0,6.0,86,0.00,,,0.00,Wunderground v.1.15,2013-02-05 09:03:00,
2013-02-05 04:08:00,38.6,34.8,29.86,SSW,204,5.0,6.0,86,0.00,,,0.00,Wunderground v.1.15,2013-02-05 09:08:00,
2013-02-05 04:13:00,38.5,35.0,29.86,SSW,204,5.0,6.0,87,0.00,,,0.00,Wunderground v.1.15,2013-02-05 09:13:00,
2013-02-05 04:18:00,38.4,34.9,29.86,SSW,204,4.0,6.0,87,0.00,,,0.00,Wunderground v.1.15,2013-02-05 09:18:00,
2013-02-05 04:23:00,38.4,34.9,29.86,SSW,204,3.0,4.0,87,0.00,,,0.00,Wunderground v.1.15,2013-02-05 09:23:00,
2013-02-05 04:28:00,38.4,35.2,29.86,SSW,204,3.0,4.0,88,0.00,,,0.00,Wunderground v.1.15,2013-02-05 09:28:00,
2013-02-05 04:33:00,38.3,35.1,29.86,SSW,203,2.0,4.0,88,0.00,,,0.00,Wunderground v.1.15,2013-02-05 09:33:00,
2013-02-05 04:38:00,38.3,35.1,29.86,SSW,204,0.0,4.0,88,0.00,,,0.00,Wunderground v.1.15,2013-02-05 09:38:00,
2013-02-05 04:43:00,38.2,35.0,29.86,SSW,204,0.0,1.0,88,0.00,,,0.00,Wunderground v.1.15,2013-02-05 09:43:00,
2013-02-05 04:48:00,38.1,34.9,29.86,SSW,204,0.0,2.0,88,0.00,,,0.00,Wunderground v.1.15,2013-02-05 09:48:00,
2013-02-05 04:53:00,38.0,34.8,29.86,SSW,204,0.0,1.0,88,0.00,,,0.00,Wunderground v.1.15,2013-02-05 09:53:00,
2013-02-05 04:58:00,37.9,34.7,29.86,SSW,203,1.0,2.0,88,0.00,,,0.00,Wunderground v.1.15,2013-02-05 09:58:00,
2013-02-05 05:03:00,37.6,34.1,29.86,SSW,203,1.0,2.0,87,0.00,,,0.00,Wunderground v.1.15,2013-02-05 10:03:00,
2013-02-05 05:08:00,37.4,33.9,29.86,SSW,204,3.0,3.0,87,0.00,,,0.00,Wunderground v.1.15,2013-02-05 10:08:00,
2013-02-05 05:14:00,37.3,33.8,29.86,SSW,203,1.0,3.0,87,0.00,,,0.00,Wunderground v.1.15,2013-02-05 10:14:00,
2013-02-05 05:19:00,37.1,33.6,29.86,SSW,204,1.0,3.0,87,0.00,,,0.00,Wunderground v.1.15,2013-02-05 10:19:00,
2013-02-05 05:24:00,37.2,34.0,29.86,SSW,204,0.0,2.0,88,0.00,,,0.00,Wunderground v.1.15,2013-02-05 10:24:00,
2013-02-05 05:29:00,37.1,33.6,29.86,SSW,204,0.0,2.0,87,0.00,,,0.00,Wunderground v.1.15,2013-02-05 10:29:00,
2013-02-05 05:34:00,37.2,33.4,29.86,SSW,204,1.0,3.0,86,0.00,,,0.00,Wunderground v.1.15,2013-02-05 10:34:00,
2013-02-05 05:39:00,37.2,33.4,29.86,SSW,204,1.0,3.0,86,0.00,,,0.00,Wunderground v.1.15,2013-02-05 10:39:00,
2013-02-05 05:44:00,37.3,33.5,29.86,SSW,204,2.0,3.0,86,0.00,,,0.00,Wunderground v.1.15,2013-02-05 10:44:00,
2013-02-05 05:49:00,37.3,33.8,29.87,SSW,203,4.0,4.0,87,0.00,,,0.00,Wunderground v.1.15,2013-02-05 10:49:00,
2013-02-05 05:54:00,37.5,34.0,29.87,SSW,204,3.0,5.0,87,0.00,,,0.00,Wunderground v.1.15,2013-02-05 10:54:00,
2013-02-05 05:59:00,37.6,34.1,29.87,SSW,204,4.0,5.0,87,0.00,,,0.00,Wunderground v.1.15,2013-02-05 10:59:00,
2013-02-05 06:04:00,37.9,34.4,29.86,SSW,203,2.0,4.0,87,0.00,,,0.00,Wunderground v.1.15,2013-02-05 11:04:00,
2013-02-05 06:09:00,38.0,34.2,29.86,SSW,203,0.0,4.0,86,0.00,,,0.00,Wunderground v.1.15,2013-02-05 11:09:00,
2013-02-05 06:14:00,38.0,33.9,29.86,SSW,204,1.0,2.0,85,0.00,,,0.00,Wunderground v.1.15,2013-02-05 11:14:00,
2013-02-05 06:19:00,37.9,33.8,29.86,SSW,204,2.0,3.0,85,0.00,,,0.00,Wunderground v.1.15,2013-02-05 11:19:00,
2013-02-05 06:24:00,37.6,33.5,29.87,SSW,204,0.0,2.0,85,0.00,,,0.00,Wunderground v.1.15,2013-02-05 11:24:00,
2013-02-05 06:29:00,37.4,33.9,29.87,SSW,204,0.0,2.0,87,0.00,,,0.00,Wunderground v.1.15,2013-02-05 11:29:00,
2013-02-05 06:34:00,37.4,34.2,29.87,SSW,204,0.0,2.0,88,0.00,,,0.00,Wunderground v.1.15,2013-02-05 11:34:00,
2013-02-05 06:39:00,37.4,34.2,29.87,SSW,203,0.0,2.0,88,0.00,,,0.00,Wunderground v.1.15,2013-02-05 11:39:00,
2013-02-05 06:44:00,37.5,34.3,29.88,SSW,204,0.0,1.0,88,0.00,,,0.00,Wunderground v.1.15,2013-02-05 11:44:00,
2013-02-05 06:49:00,37.6,34.4,29.87,SSW,203,1.0,1.0,88,0.00,,,0.00,Wunderground v.1.15,2013-02-05 11:49:00,
2013-02-05 06:54:00,37.5,34.0,29.88,SSW,203,0.0,1.0,87,0.00,,,0.00,Wunderground v.1.15,2013-02-05 11:54:00,
2013-02-05 06:59:00,37.6,34.1,29.88,SSW,203,1.0,1.0,87,0.00,,,0.00,Wunderground v.1.15,2013-02-05 11:59:00,
2013-02-05 07:04:00,37.4,34.2,29.87,SSW,204,2.0,2.0,88,0.00,,,0.00,Wunderground v.1.15,2013-02-05 12:04:00,
2013-02-05 07:09:00,37.0,33.8,29.88,SSW,204,1.0,2.0,88,0.00,,,0.00,Wunderground v.1.15,2013-02-05 12:09:00,
2013-02-05 07:14:00,37.0,34.1,29.89,SSW,203,1.0,2.0,89,0.00,,,0.00,Wunderground v.1.15,2013-02-05 12:14:00,
2013-02-05 07:19:00,37.0,34.1,29.89,SSW,203,0.0,2.0,89,0.00,,,0.00,Wunderground v.1.15,2013-02-05 12:19:00,
2013-02-05 07:24:00,37.1,34.4,29.89,SSW,204,0.0,1.0,90,0.00,,,0.00,Wunderground v.1.15,2013-02-05 12:24:00,
2013-02-05 07:29:00,37.1,34.4,29.89,SSW,204,0.0,1.0,90,0.00,,,0.00,Wunderground v.1.15,2013-02-05 12:29:00,
2013-02-05 07:34:00,37.2,34.5,29.89,SSW,204,0.0,1.0,90,0.00,,,0.00,Wunderground v.1.15,2013-02-05 12:34:00,
2013-02-05 07:39:00,37.1,34.4,29.90,SSW,204,0.0,1.0,90,0.00,,,0.00,Wunderground v.1.15,2013-02-05 12:39:00,
2013-02-05 07:44:00,37.1,34.4,29.90,SSW,204,0.0,0.0,90,0.00,,,0.00,Wunderground v.1.15,2013-02-05 12:44:00,
2013-02-05 07:49:00,37.1,34.2,29.89,SSW,204,0.0,0.0,89,0.00,,,0.00,Wunderground v.1.15,2013-02-05 12:49:00,
2013-02-05 07:54:00,37.3,34.1,29.89,SSW,203,0.0,1.0,88,0.00,,,0.00,Wunderground v.1.15,2013-02-05 12:54:00,
2013-02-05 07:59:00,37.3,33.8,29.89,SSW,205,1.0,1.0,87,0.00,,,0.00,Wunderground v.1.15,2013-02-05 12:59:00,
2013-02-05 08:04:00,37.4,33.9,29.90,SSW,204,0.0,1.0,87,0.00,,,0.00,Wunderground v.1.15,2013-02-05 13:04:00,
2013-02-05 08:09:00,37.4,33.6,29.91,SSW,204,0.0,1.0,86,0.00,,,0.00,Wunderground v.1.15,2013-02-05 13:09:00,
2013-02-05 08:14:00,37.5,34.0,29.91,SSW,204,0.0,1.0,87,0.00,,,0.00,Wunderground v.1.15,2013-02-05 13:14:00,
2013-02-05 08:19:00,37.5,34.0,29.91,SSW,204,1.0,2.0,87,0.00,,,0.00,Wunderground v.1.15,2013-02-05 13:19:00,
2013-02-05 08:24:00,37.6,34.1,29.91,SSW,204,0.0,2.0,87,0.00,,,0.00,Wunderground v.1.15,2013-02-05 13:24:00,
2013-02-05 08:30:00,37.6,34.1,29.91,SSW,204,1.0,1.0,87,0.00,,,0.00,Wunderground v.1.15,2013-02-05 13:30:00,
2013-02-05 08:35:00,37.7,34.2,29.90,SSW,203,0.0,2.0,87,0.00,,,0.00,Wunderground v.1.15,2013-02-05 13:35:00,
2013-02-05 08:40:00,37.7,34.2,29.90,SSW,204,0.0,1.0,87,0.00,,,0.00,Wunderground v.1.15,2013-02-05 13:40:00,
2013-02-05 08:45:00,37.8,34.6,29.90,SSW,203,1.0,2.0,88,0.00,,,0.00,Wunderground v.1.15,2013-02-05 13:45:00,
2013-02-05 08:50:00,37.9,34.9,29.90,SSW,203,1.0,2.0,89,0.00,,,0.00,Wunderground v.1.15,2013-02-05 13:50:00,
2013-02-05 08:55:00,38.0,35.0,29.90,SSW,204,1.0,2.0,89,0.00,,,0.00,Wunderground v.1.15,2013-02-05 13:55:00,
2013-02-05 09:00:00,38.1,35.1,29.90,SSW,204,0.0,1.0,89,0.00,,,0.00,Wunderground v.1.15,2013-02-05 14:00:00,
2013-02-05 09:05:00,38.3,35.3,29.90,SSW,204,0.0,1.0,89,0.00,,,0.00,Wunderground v.1.15,2013-02-05 14:05:00,
2013-02-05 09:10:00,38.3,35.6,29.91,SSW,203,0.0,0.0,90,0.00,,,0.00,Wunderground v.1.15,2013-02-05 14:10:00,
2013-02-05 09:15:00,38.5,35.8,29.91,SSW,204,0.0,1.0,90,0.00,,,0.00,Wunderground v.1.15,2013-02-05 14:15:00,
2013-02-05 09:20:00,38.6,35.9,29.91,SSW,204,0.0,0.0,90,0.00,,,0.00,Wunderground v.1.15,2013-02-05 14:20:00,
2013-02-05 09:25:00,38.8,36.1,29.91,SSW,203,0.0,2.0,90,0.00,,,0.00,Wunderground v.1.15,2013-02-05 14:25:00,
2013-02-05 09:30:00,38.8,35.6,29.91,NW,326,3.0,5.0,88,0.00,,,0.00,Wunderground v.1.15,2013-02-05 14:30:00,
2013-02-05 09:35:00,38.7,35.5,29.92,NW,326,4.0,5.0,88,0.00,,,0.00,Wunderground v.1.15,2013-02-05 14:35:00,
2013-02-05 09:40:00,38.7,35.5,29.93,NW,326,5.0,6.0,88,0.00,,,0.00,Wunderground v.1.15,2013-02-05 14:40:00,
2013-02-05 09:45:00,38.6,35.6,29.93,NW,326,5.0,7.0,89,0.00,,,0.00,Wunderground v.1.15,2013-02-05 14:45:00,
2013-02-05 09:50:00,38.3,35.6,29.94,NW,326,5.0,6.0,90,0.00,,,0.00,Wunderground v.1.15,2013-02-05 14:50:00,
2013-02-05 09:55:00,38.2,35.8,29.93,NW,326,4.0,6.0,91,0.00,,,0.00,Wunderground v.1.15,2013-02-05 14:55:00,
2013-02-05 10:00:00,38.2,35.8,29.92,NW,326,2.0,4.0,91,0.00,,,0.00,Wunderground v.1.15,2013-02-05 15:00:00,
2013-02-05 10:05:00,38.3,35.6,29.92,NW,326,0.0,4.0,90,0.00,,,0.00,Wunderground v.1.15,2013-02-05 15:05:00,
2013-02-05 10:10:00,38.5,35.5,29.92,NW,326,0.0,2.0,89,0.00,,,0.00,Wunderground v.1.15,2013-02-05 15:10:00,
2013-02-05 10:15:00,38.8,35.0,29.92,NW,326,3.0,4.0,86,0.00,,,0.00,Wunderground v.1.15,2013-02-05 15:15:00,
2013-02-05 10:20:00,39.0,34.3,29.91,NW,326,2.0,2.0,83,0.00,,,0.00,Wunderground v.1.15,2013-02-05 15:20:00,
2013-02-05 10:25:00,39.2,33.2,29.92,NW,326,2.0,2.0,79,0.00,,,0.00,Wunderground v.1.15,2013-02-05 15:25:00,
2013-02-05 10:30:00,39.5,32.9,29.92,NW,326,2.0,3.0,77,0.00,,,0.00,Wunderground v.1.15,2013-02-05 15:30:00,
2013-02-05 10:35:00,39.7,32.4,29.92,NW,326,0.0,3.0,75,0.00,,,0.00,Wunderground v.1.15,2013-02-05 15:35:00,
2013-02-05 10:40:00,40.0,33.7,29.92,NW,326,4.0,6.0,78,0.00,,,0.00,Wunderground v.1.15,2013-02-05 15:40:00,
2013-02-05 10:45:00,39.7,35.0,29.92,NW,326,3.0,7.0,83,0.00,,,0.00,Wunderground v.1.15,2013-02-05 15:45:00,
2013-02-05 10:51:00,39.3,34.9,29.92,NW,326,3.0,4.0,84,0.00,,,0.00,Wunderground v.1.15,2013-02-05 15:51:00,
2013-02-05 10:56:00,38.9,35.1,29.92,NNW,327,4.0,6.0,86,0.00,,,0.00,Wunderground v.1.15,2013-02-05 15:56:00,
2013-02-05 11:01:00,38.6,34.8,29.92,NNW,328,3.0,4.0,86,0.00,,,0.00,Wunderground v.1.15,2013-02-05 16:01:00,
2013-02-05 11:06:00,38.3,34.5,29.91,NNW,328,3.0,7.0,86,0.00,,,0.00,Wunderground v.1.15,2013-02-05 16:06:00,
2013-02-05 11:11:00,38.2,34.7,29.92,NNW,336,6.0,7.0,87,0.00,,,0.00,Wunderground v.1.15,2013-02-05 16:11:00,
2013-02-05 11:16:00,38.1,34.9,29.92,NNW,336,3.0,7.0,88,0.00,,,0.00,Wunderground v.1.15,2013-02-05 16:16:00,
2013-02-05 11:20:00,38.1,35.1,29.92,NNW,336,5.0,7.0,89,0.00,,,0.00,Wunderground v.1.15,2013-02-05 16:20:00,
2013-02-05 11:25:00,38.0,35.0,29.91,NNW,337,3.0,7.0,89,0.00,,,0.00,Wunderground v.1.15,2013-02-05 16:25:00,
2013-02-05 11:30:00,38.0,35.0,29.91,NNW,333,2.0,5.0,89,0.00,,,0.00,Wunderground v.1.15,2013-02-05 16:30:00,
2013-02-05 11:36:00,38.0,35.0,29.91,NNW,333,4.0,7.0,89,0.00,,,0.00,Wunderground v.1.15,2013-02-05 16:36:00,
2013-02-05 11:41:00,38.0,35.0,29.92,NNW,334,1.0,5.0,89,0.00,,,0.00,Wunderground v.1.15,2013-02-05 16:41:00,
2013-02-05 11:46:00,38.0,35.0,29.91,NNW,334,3.0,5.0,89,0.00,,,0.00,Wunderground v.1.15,2013-02-05 16:46:00,
2013-02-05 11:51:00,38.1,35.1,29.91,NNW,334,5.0,5.0,89,0.00,,,0.00,Wunderground v.1.15,2013-02-05 16:51:00,
2013-02-05 11:56:00,38.0,35.0,29.91,NNW,334,4.0,7.0,89,0.00,,,0.00,Wunderground v.1.15,2013-02-05 16:56:00,
2013-02-05 12:01:00,38.0,35.0,29.90,NNW,334,1.0,4.0,89,0.00,,,0.00,Wunderground v.1.15,2013-02-05 17:01:00,
2013-02-05 12:06:00,38.0,35.3,29.90,NNW,334,4.0,5.0,90,0.00,,,0.00,Wunderground v.1.15,2013-02-05 17:06:00,
2013-02-05 12:11:00,38.1,35.1,29.90,NNW,334,5.0,6.0,89,0.00,,,0.00,Wunderground v.1.15,2013-02-05 17:11:00,
2013-02-05 12:16:00,38.0,35.0,29.90,NNW,334,3.0,7.0,89,0.00,,,0.00,Wunderground v.1.15,2013-02-05 17:16:00,
2013-02-05 12:21:00,38.0,35.0,29.90,NNW,334,1.0,4.0,89,0.00,,,0.00,Wunderground v.1.15,2013-02-05 17:21:00,
2013-02-05 12:26:00,38.1,34.9,29.89,NNW,334,5.0,6.0,88,0.00,,,0.00,Wunderground v.1.15,2013-02-05 17:26:00,
2013-02-05 12:31:00,38.0,34.8,29.89,NNW,334,3.0,6.0,88,0.00,,,0.00,Wunderground v.1.15,2013-02-05 17:31:00,
2013-02-05 12:36:00,38.0,34.8,29.89,NNW,334,6.0,6.0,88,0.00,,,0.00,Wunderground v.1.15,2013-02-05 17:36:00,
2013-02-05 12:41:00,38.1,34.9,29.89,NNW,334,1.0,4.0,88,0.00,,,0.00,Wunderground v.1.15,2013-02-05 17:41:00,
2013-02-05 12:46:00,38.1,34.9,29.88,NNW,334,2.0,6.0,88,0.00,,,0.00,Wunderground v.1.15,2013-02-05 17:46:00,
2013-02-05 12:51:00,38.1,34.9,29.88,NNW,334,1.0,5.0,88,0.00,,,0.00,Wunderground v.1.15,2013-02-05 17:51:00,
2013-02-05 12:56:00,38.2,35.0,29.87,NNW,336,2.0,5.0,88,0.00,,,0.00,Wunderground v.1.15,2013-02-05 17:56:00,
2013-02-05 13:01:00,38.2,35.0,29.87,NNW,336,4.0,5.0,88,0.00,,,0.00,Wunderground v.1.15,2013-02-05 18:01:00,
2013-02-05 13:06:00,38.1,34.9,29.87,NNW,336,5.0,8.0,88,0.00,,,0.00,Wunderground v.1.15,2013-02-05 18:06:00,
2013-02-05 13:11:00,38.0,34.8,29.87,NNW,336,4.0,7.0,88,0.00,,,0.00,Wunderground v.1.15,2013-02-05 18:11:00,
2013-02-05 13:16:00,37.9,34.7,29.86,NNW,336,2.0,10.0,88,0.00,,,0.00,Wunderground v.1.15,2013-02-05 18:16:00,
2013-02-05 13:21:00,38.0,34.5,29.86,NNW,344,4.0,6.0,87,0.00,,,0.00,Wunderground v.1.15,2013-02-05 18:21:00,
2013-02-05 13:26:00,38.1,34.6,29.86,NNW,336,0.0,9.0,87,0.00,,,0.00,Wunderground v.1.15,2013-02-05 18:26:00,
2013-02-05 13:31:00,38.2,34.7,29.86,North,360,3.0,4.0,87,0.00,,,0.00,Wunderground v.1.15,2013-02-05 18:31:00,
2013-02-05 13:36:00,38.3,34.5,29.86,North,355,5.0,6.0,86,0.00,,,0.00,Wunderground v.1.15,2013-02-05 18:36:00,
2013-02-05 13:41:00,38.2,34.4,29.86,NNW,346,5.0,6.0,86,0.00,,,0.00,Wunderground v.1.15,2013-02-05 18:41:00,
2013-02-05 13:46:00,37.9,34.1,29.86,NNW,346,5.0,6.0,86,0.00,,,0.00,Wunderground v.1.15,2013-02-05 18:46:00,
2013-02-05 13:51:00,37.8,34.0,29.87,NNW,346,7.0,8.0,86,0.00,,,0.00,Wunderground v.1.15,2013-02-05 18:51:00,
2013-02-05 13:56:00,37.7,34.2,29.87,NNW,336,4.0,11.0,87,0.00,,,0.00,Wunderground v.1.15,2013-02-05 18:56:00,
2013-02-05 14:01:00,37.7,34.2,29.87,NNW,336,5.0,6.0,87,0.00,,,0.00,Wunderground v.1.15,2013-02-05 19:01:00,
2013-02-05 14:06:00,37.8,34.3,29.87,NNW,336,3.0,6.0,87,0.00,,,0.00,Wunderground v.1.15,2013-02-05 19:06:00,
2013-02-05 14:12:00,37.9,34.4,29.87,NNW,336,5.0,7.0,87,0.00,,,0.00,Wunderground v.1.15,2013-02-05 19:12:00,
2013-02-05 14:17:00,38.0,34.2,29.86,NNW,336,2.0,7.0,86,0.00,,,0.00,Wunderground v.1.15,2013-02-05 19:17:00,
2013-02-05 14:22:00,38.0,34.2,29.86,NNW,336,6.0,7.0,86,0.00,,,0.00,Wunderground v.1.15,2013-02-05 19:22:00,
2013-02-05 14:27:00,38.1,34.3,29.86,NNW,336,1.0,7.0,86,0.00,,,0.00,Wunderground v.1.15,2013-02-05 19:27:00,
2013-02-05 14:32:00,38.2,34.4,29.86,NNW,336,1.0,4.0,86,0.00,,,0.00,Wunderground v.1.15,2013-02-05 19:32:00,
2013-02-05 14:37:00,38.2,34.4,29.85,NNW,336,1.0,4.0,86,0.00,,,0.00,Wunderground v.1.15,2013-02-05 19:37:00,
2013-02-05 14:42:00,38.4,34.6,29.85,NNW,336,6.0,7.0,86,0.00,,,0.00,Wunderground v.1.15,2013-02-05 19:42:00,
2013-02-05 14:47:00,38.3,34.5,29.85,NNW,336,4.0,7.0,86,0.00,,,0.00,Wunderground v.1.15,2013-02-05 19:47:00,
2013-02-05 14:52:00,38.3,34.8,29.85,NNW,333,1.0,5.0,87,0.00,,,0.00,Wunderground v.1.15,2013-02-05 19:52:00,
2013-02-05 14:57:00,38.5,35.0,29.85,NNW,333,3.0,5.0,87,0.00,,,0.00,Wunderground v.1.15,2013-02-05 19:57:00,
2013-02-05 15:03:00,38.5,35.0,29.85,NNW,333,5.0,7.0,87,0.00,,,0.00,Wunderground v.1.15,2013-02-05 20:03:00,
2013-02-05 15:08:00,38.5,35.0,29.85,NNW,333,4.0,7.0,87,0.00,,,0.00,Wunderground v.1.15,2013-02-05 20:08:00,
2013-02-05 15:13:00,38.5,35.0,29.85,NNW,333,0.0,5.0,87,0.00,,,0.00,Wunderground v.1.15,2013-02-05 20:13:00,
2013-02-05 15:18:00,38.6,35.1,29.85,NNW,333,4.0,5.0,87,0.00,,,0.00,Wunderground v.1.15,2013-02-05 20:18:00,
2013-02-05 15:23:00,38.7,35.2,29.85,NNW,333,5.0,6.0,87,0.00,,,0.00,Wunderground v.1.15,2013-02-05 20:23:00,
2013-02-05 15:28:00,38.6,35.1,29.85,NNW,333,3.0,6.0,87,0.00,,,0.00,Wunderground v.1.15,2013-02-05 20:28:00,
2013-02-05 15:33:00,38.6,35.1,29.85,NNW,333,3.0,5.0,87,0.00,,,0.00,Wunderground v.1.15,2013-02-05 20:33:00,
2013-02-05 15:38:00,38.5,35.0,29.85,NNW,333,2.0,5.0,87,0.00,,,0.00,Wunderground v.1.15,2013-02-05 20:38:00,
2013-02-05 15:43:00,38.5,35.0,29.85,NNW,333,2.0,4.0,87,0.00,,,0.00,Wunderground v.1.15,2013-02-05 20:43:00,
2013-02-05 15:48:00,38.5,35.0,29.85,NNW,333,2.0,5.0,87,0.00,,,0.00,Wunderground v.1.15,2013-02-05 20:48:00,
2013-02-05 15:53:00,38.5,35.0,29.85,NNW,333,3.0,7.0,87,0.00,,,0.00,Wunderground v.1.15,2013-02-05 20:53:00,
2013-02-05 15:58:00,38.4,34.9,29.85,NNW,333,4.0,7.0,87,0.00,,,0.00,Wunderground v.1.15,2013-02-05 20:58:00,
2013-02-05 16:03:00,38.4,34.9,29.85,NNW,333,2.0,5.0,87,0.00,,,0.00,Wunderground v.1.15,2013-02-05 21:03:00,
2013-02-05 16:08:00,38.3,34.8,29.85,NNW,333,2.0,5.0,87,0.00,,,0.00,Wunderground v.1.15,2013-02-05 21:08:00,
2013-02-05 16:13:00,38.3,34.8,29.85,NNW,333,2.0,5.0,87,0.00,,,0.00,Wunderground v.1.15,2013-02-05 21:13:00,
2013-02-05 16:18:00,38.2,34.7,29.86,NNW,333,4.0,5.0,87,0.00,,,0.00,Wunderground v.1.15,2013-02-05 21:18:00,
2013-02-05 16:23:00,38.1,34.9,29.86,NNW,333,5.0,7.0,88,0.00,,,0.00,Wunderground v.1.15,2013-02-05 21:23:00,
2013-02-05 16:28:00,38.0,34.8,29.86,NNW,333,2.0,7.0,88,0.00,,,0.00,Wunderground v.1.15,2013-02-05 21:28:00,
2013-02-05 16:33:00,37.9,34.7,29.86,NNW,333,3.0,6.0,88,0.00,,,0.00,Wunderground v.1.15,2013-02-05 21:33:00,
2013-02-05 16:38:00,37.9,34.7,29.86,NNW,333,1.0,6.0,88,0.00,,,0.00,Wunderground v.1.15,2013-02-05 21:38:00,
2013-02-05 16:43:00,37.9,34.7,29.86,NNW,333,3.0,4.0,88,0.00,,,0.00,Wunderground v.1.15,2013-02-05 21:43:00,
2013-02-05 16:48:00,37.9,34.7,29.86,NNW,333,0.0,5.0,88,0.00,,,0.00,Wunderground v.1.15,2013-02-05 21:48:00,
2013-02-05 16:53:00,37.9,34.9,29.86,NNW,333,2.0,5.0,89,0.00,,,0.00,Wunderground v.1.15,2013-02-05 21:53:00,
2013-02-05 16:58:00,37.9,34.9,29.86,NNW,333,1.0,5.0,89,0.00,,,0.00,Wunderground v.1.15,2013-02-05 21:58:00,
2013-02-05 17:03:00,37.8,34.8,29.86,NNW,333,0.0,1.0,89,0.00,,,0.00,Wunderground v.1.15,2013-02-05 22:03:00,
2013-02-05 17:08:00,37.8,34.8,29.85,NNW,333,0.0,1.0,89,0.00,,,0.00,Wunderground v.1.15,2013-02-05 22:08:00,
2013-02-05 17:13:00,37.7,34.8,29.85,NNW,333,0.0,0.0,89,0.00,,,0.00,Wunderground v.1.15,2013-02-05 22:13:00,
2013-02-05 17:18:00,37.7,34.5,29.86,NNW,333,0.0,0.0,88,0.00,,,0.00,Wunderground v.1.15,2013-02-05 22:18:00,
2013-02-05 17:23:00,37.6,34.4,29.86,NNW,333,0.0,0.0,88,0.00,,,0.00,Wunderground v.1.15,2013-02-05 22:23:00,
2013-02-05 17:28:00,37.5,34.3,29.86,NNW,333,0.0,0.0,88,0.00,,,0.00,Wunderground v.1.15,2013-02-05 22:28:00,
2013-02-05 17:33:00,37.4,34.2,29.86,NNW,333,1.0,2.0,88,0.00,,,0.00,Wunderground v.1.15,2013-02-05 22:33:00,
2013-02-05 17:38:00,37.3,34.1,29.86,NNW,333,0.0,2.0,88,0.00,,,0.00,Wunderground v.1.15,2013-02-05 22:38:00,
2013-02-05 17:44:00,37.2,34.0,29.86,NNW,333,0.0,3.0,88,0.00,,,0.00,Wunderground v.1.15,2013-02-05 22:44:00,
2013-02-05 17:49:00,37.1,33.9,29.86,NNW,333,1.0,3.0,88,0.00,,,0.00,Wunderground v.1.15,2013-02-05 22:49:00,
2013-02-05 17:54:00,37.0,33.8,29.86,NNW,333,0.0,1.0,88,0.00,,,0.00,Wunderground v.1.15,2013-02-05 22:54:00,
2013-02-05 17:59:00,37.0,33.8,29.86,NNW,333,0.0,1.0,88,0.00,,,0.00,Wunderground v.1.15,2013-02-05 22:59:00,
2013-02-05 18:04:00,36.9,33.7,29.87,NNW,333,0.0,1.0,88,0.00,,,0.00,Wunderground v.1.15,2013-02-05 23:04:00,
2013-02-05 18:09:00,36.9,33.7,29.87,NNW,333,0.0,2.0,88,0.00,,,0.00,Wunderground v.1.15,2013-02-05 23:09:00,
2013-02-05 18:14:00,36.9,33.7,29.87,NNW,333,1.0,2.0,88,0.00,,,0.00,Wunderground v.1.15,2013-02-05 23:14:00,
2013-02-05 18:19:00,36.9,33.7,29.87,NNW,333,2.0,3.0,88,0.00,,,0.00,Wunderground v.1.15,2013-02-05 23:19:00,
2013-02-05 18:24:00,37.1,34.2,29.87,NNW,333,0.0,4.0,89,0.00,,,0.00,Wunderground v.1.15,2013-02-05 23:24:00,
2013-02-05 18:29:00,37.2,34.3,29.88,NNW,333,1.0,4.0,89,0.00,,,0.00,Wunderground v.1.15,2013-02-05 23:29:00,
2013-02-05 18:34:00,37.4,34.5,29.88,NNW,333,2.0,5.0,89,0.00,,,0.00,Wunderground v.1.15,2013-02-05 23:34:00,
2013-02-05 18:39:00,37.5,34.8,29.88,NNW,333,3.0,5.0,90,0.00,,,0.00,Wunderground v.1.15,2013-02-05 23:39:00,
2013-02-05 18:44:00,37.6,34.9,29.88,NNW,333,1.0,3.0,90,0.00,,,0.00,Wunderground v.1.15,2013-02-05 23:44:00,
2013-02-05 18:49:00,37.6,34.9,29.88,NNW,333,0.0,3.0,90,0.00,,,0.00,Wunderground v.1.15,2013-02-05 23:49:00,
2013-02-05 18:54:00,37.5,34.8,29.88,NNW,333,2.0,2.0,90,0.00,,,0.00,Wunderground v.1.15,2013-02-05 23:54:00,
2013-02-05 18:59:00,37.5,34.8,29.89,NNW,333,0.0,4.0,90,0.00,,,0.00,Wunderground v.1.15,2013-02-05 23:59:00,
2013-02-05 19:04:00,37.5,34.8,29.88,NNW,333,1.0,4.0,90,0.00,,,0.00,Wunderground v.1.15,2013-02-06 00:04:00,
2013-02-05 19:09:00,37.4,35.0,29.88,NNW,333,3.0,4.0,91,0.00,,,0.00,Wunderground v.1.15,2013-02-06 00:09:00,
2013-02-05 19:15:00,37.4,35.0,29.88,NNW,333,0.0,3.0,91,0.00,,,0.00,Wunderground v.1.15,2013-02-06 00:15:00,
2013-02-05 19:20:00,37.3,34.9,29.88,NNW,333,0.0,1.0,91,0.00,,,0.00,Wunderground v.1.15,2013-02-06 00:20:00,
2013-02-05 19:25:00,37.2,34.5,29.88,NNW,333,0.0,1.0,90,0.00,,,0.00,Wunderground v.1.15,2013-02-06 00:25:00,
2013-02-05 19:30:00,37.1,34.4,29.88,NNW,333,0.0,0.0,90,0.00,,,0.00,Wunderground v.1.15,2013-02-06 00:30:00,
2013-02-05 19:35:00,36.9,34.2,29.88,NNW,333,0.0,2.0,90,0.00,,,0.00,Wunderground v.1.15,2013-02-06 00:35:00,
2013-02-05 19:40:00,36.8,34.1,29.88,NNW,333,0.0,0.0,90,0.00,,,0.00,Wunderground v.1.15,2013-02-06 00:40:00,
2013-02-05 19:45:00,36.7,34.0,29.89,NNW,333,1.0,3.0,90,0.00,,,0.00,Wunderground v.1.15,2013-02-06 00:45:00,
2013-02-05 19:50:00,36.6,33.9,29.89,NNW,333,2.0,2.0,90,0.00,,,0.00,Wunderground v.1.15,2013-02-06 00:50:00,
2013-02-05 19:55:00,36.5,33.8,29.89,NNW,333,0.0,4.0,90,0.00,,,0.00,Wunderground v.1.15,2013-02-06 00:55:00,
2013-02-05 20:00:00,36.5,33.8,29.89,NNW,333,0.0,1.0,90,0.00,,,0.00,Wunderground v.1.15,2013-02-06 01:00:00,
2013-02-05 20:05:00,36.4,33.7,29.88,NNW,333,0.0,3.0,90,0.00,,,0.00,Wunderground v.1.15,2013-02-06 01:05:00,
2013-02-05 20:10:00,36.2,33.5,29.88,NNW,333,2.0,3.0,90,0.00,,,0.00,Wunderground v.1.15,2013-02-06 01:10:00,
2013-02-05 20:15:00,36.1,33.5,29.88,NNW,333,2.0,4.0,90,0.00,,,0.00,Wunderground v.1.15,2013-02-06 01:15:00,
2013-02-05 20:20:00,36.0,33.4,29.88,NNW,333,0.0,1.0,90,0.00,,,0.00,Wunderground v.1.15,2013-02-06 01:20:00,
2013-02-05 20:25:00,36.0,33.4,29.88,NNW,333,0.0,1.0,90,0.00,,,0.00,Wunderground v.1.15,2013-02-06 01:25:00,
2013-02-05 20:30:00,35.9,33.3,29.88,NNW,333,0.0,0.0,90,0.00,,,0.00,Wunderground v.1.15,2013-02-06 01:30:00,
2013-02-05 20:35:00,35.9,33.3,29.89,NNW,333,0.0,2.0,90,0.00,,,0.00,Wunderground v.1.15,2013-02-06 01:35:00,
2013-02-05 20:40:00,35.9,33.3,29.89,NNW,333,0.0,0.0,90,0.00,,,0.00,Wunderground v.1.15,2013-02-06 01:40:00,
2013-02-05 20:45:00,36.0,33.4,29.89,NNW,333,0.0,2.0,90,0.00,,,0.00,Wunderground v.1.15,2013-02-06 01:45:00,
2013-02-05 20:50:00,36.0,33.4,29.89,NNW,333,0.0,1.0,90,0.00,,,0.00,Wunderground v.1.15,2013-02-06 01:50:00,
2013-02-05 20:55:00,36.0,33.4,29.89,NNW,333,0.0,1.0,90,0.00,,,0.00,Wunderground v.1.15,2013-02-06 01:55:00,
2013-02-05 21:00:00,36.0,33.4,29.89,NNW,333,0.0,0.0,90,0.00,,,0.00,Wunderground v.1.15,2013-02-06 02:00:00,
2013-02-05 21:05:00,35.9,33.3,29.89,NNW,333,0.0,1.0,90,0.00,,,0.00,Wunderground v.1.15,2013-02-06 02:05:00,
2013-02-05 21:10:00,35.8,33.2,29.89,NNW,333,1.0,2.0,90,0.00,,,0.00,Wunderground v.1.15,2013-02-06 02:10:00,
2013-02-05 21:15:00,35.6,33.0,29.89,NNW,333,2.0,3.0,90,0.00,,,0.00,Wunderground v.1.15,2013-02-06 02:15:00,
2013-02-05 21:20:00,35.5,32.9,29.89,NNW,333,1.0,2.0,90,0.00,,,0.00,Wunderground v.1.15,2013-02-06 02:20:00,
2013-02-05 21:25:00,35.5,32.9,29.89,NNW,333,0.0,2.0,90,0.00,,,0.00,Wunderground v.1.15,2013-02-06 02:25:00,
2013-02-05 21:30:00,35.4,32.8,29.90,NNW,333,0.0,1.0,90,0.00,,,0.00,Wunderground v.1.15,2013-02-06 02:30:00,
2013-02-05 21:36:00,35.2,32.6,29.90,NNW,333,0.0,1.0,90,0.00,,,0.00,Wunderground v.1.15,2013-02-06 02:36:00,
2013-02-05 21:41:00,35.2,32.8,29.90,NNW,333,0.0,2.0,91,0.00,,,0.00,Wunderground v.1.15,2013-02-06 02:41:00,
2013-02-05 21:46:00,35.1,32.7,29.90,NNW,333,1.0,2.0,91,0.00,,,0.00,Wunderground v.1.15,2013-02-06 02:46:00,
2013-02-05 21:51:00,35.1,32.7,29.90,NNW,333,0.0,1.0,91,0.00,,,0.00,Wunderground v.1.15,2013-02-06 02:51:00,
2013-02-05 21:56:00,35.1,32.7,29.90,NNW,333,0.0,1.0,91,0.00,,,0.00,Wunderground v.1.15,2013-02-06 02:56:00,
2013-02-05 22:01:00,35.0,32.6,29.90,NNW,333,0.0,1.0,91,0.00,,,0.00,Wunderground v.1.15,2013-02-06 03:01:00,
2013-02-05 22:06:00,34.9,32.3,29.90,NNW,333,2.0,2.0,90,0.00,,,0.00,Wunderground v.1.15,2013-02-06 03:06:00,
2013-02-05 22:11:00,34.8,32.2,29.90,NNW,333,1.0,2.0,90,0.00,,,0.00,Wunderground v.1.15,2013-02-06 03:11:00,
2013-02-05 22:16:00,34.7,32.1,29.90,NNW,333,0.0,2.0,90,0.00,,,0.00,Wunderground v.1.15,2013-02-06 03:16:00,
2013-02-05 22:21:00,34.7,32.1,29.91,NNW,333,0.0,3.0,90,0.00,,,0.00,Wunderground v.1.15,2013-02-06 03:21:00,
2013-02-05 22:26:00,34.6,32.0,29.91,NNW,333,0.0,3.0,90,0.00,,,0.00,Wunderground v.1.15,2013-02-06 03:26:00,
2013-02-05 22:31:00,34.5,31.9,29.91,NNW,333,0.0,1.0,90,0.00,,,0.00,Wunderground v.1.15,2013-02-06 03:31:00,
2013-02-05 22:36:00,34.4,31.8,29.91,NNW,333,1.0,3.0,90,0.00,,,0.00,Wunderground v.1.15,2013-02-06 03:36:00,
2013-02-05 22:41:00,34.4,31.8,29.91,NNW,333,1.0,2.0,90,0.00,,,0.00,Wunderground v.1.15,2013-02-06 03:41:00,
2013-02-05 22:46:00,34.4,32.0,29.91,NNW,333,0.0,2.0,91,0.00,,,0.00,Wunderground v.1.15,2013-02-06 03:46:00,
2013-02-05 22:51:00,34.4,32.0,29.91,NNW,333,0.0,0.0,91,0.00,,,0.00,Wunderground v.1.15,2013-02-06 03:51:00,
2013-02-05 22:56:00,34.4,32.0,29.91,NNW,333,0.0,0.0,91,0.00,,,0.00,Wunderground v.1.15,2013-02-06 03:56:00,
2013-02-05 23:01:00,34.4,32.0,29.91,NNW,333,0.0,0.0,91,0.00,,,0.00,Wunderground v.1.15,2013-02-06 04:01:00,
2013-02-05 23:06:00,34.4,32.0,29.92,NNW,333,0.0,0.0,91,0.00,,,0.00,Wunderground v.1.15,2013-02-06 04:06:00,
2013-02-05 23:11:00,34.2,31.8,29.91,NNW,333,0.0,1.0,91,0.00,,,0.00,Wunderground v.1.15,2013-02-06 04:11:00,
2013-02-05 23:16:00,34.1,31.5,29.91,NNW,333,0.0,1.0,90,0.00,,,0.00,Wunderground v.1.15,2013-02-06 04:16:00,
2013-02-05 23:21:00,34.1,31.7,29.91,NNW,333,2.0,2.0,91,0.00,,,0.00,Wunderground v.1.15,2013-02-06 04:21:00,
2013-02-05 23:26:00,34.1,31.7,29.92,NNW,333,1.0,3.0,91,0.00,,,0.00,Wunderground v.1.15,2013-02-06 04:26:00,
2013-02-05 23:31:00,34.2,31.8,29.92,NNW,333,3.0,3.0,91,0.00,,,0.00,Wunderground v.1.15,2013-02-06 04:31:00,
2013-02-05 23:36:00,34.4,32.0,29.92,NNW,333,2.0,4.0,91,0.00,,,0.00,Wunderground v.1.15,2013-02-06 04:36:00,
2013-02-05 23:41:00,34.4,32.3,29.92,NNW,333,2.0,3.0,92,0.00,,,0.00,Wunderground v.1.15,2013-02-06 04:41:00,
2013-02-05 23:46:00,34.7,32.6,29.93,NNW,333,2.0,3.0,92,0.00,,,0.00,Wunderground v.1.15,2013-02-06 04:46:00,
2013-02-05 23:51:00,34.8,32.7,29.92,NNW,333,1.0,3.0,92,0.00,,,0.00,Wunderground v.1.15,2013-02-06 04:51:00,
2013-02-05 23:56:00,35.1,33.0,29.92,NNW,333,1.0,4.0,92,0.00,,,0.00,Wunderground v.1.15,2013-02-06 04:56:00,